TimeEST,TemperatureF,Dew PointF,Humidity,Sea Level PressureIn,VisibilityMPH,Wind Direction,Wind SpeedMPH,Gust SpeedMPH,PrecipitationIn,Events,Conditions,WindDirDegrees,DateUTC
12:15 AM,28.6,13.6,54,29.94,10.0,Calm,Calm,-,N/A,,Clear,0,2013-02-17 05:15:00
12:35 AM,28.2,13.6,54,29.94,10.0,Calm,Calm,-,N/A,,Clear,0,2013-02-17 05:35:00
12:55 AM,26.6,14.0,59,29.94,10.0,West,3.5,-,N/A,,Clear,270,2013-02-17 05:55:00
1:15 AM,26.8,14.0,59,29.95,10.0,West,3.5,-,N/A,,Clear,280,2013-02-17 06:15:00
1:35 AM,27.0,14.4,59,29.95,10.0,WNW,6.9,-,N/A,,Clear,290,2013-02-17 06:35:00
1:55 AM,28.0,14.4,57,29.96,10.0,WNW,5.8,-,N/A,,Clear,290,2013-02-17 06:55:00
2:15 AM,28.4,14.4,56,29.96,10.0,WNW,5.8,-,N/A,,Clear,290,2013-02-17 07:15:00
2:35 AM,27.3,14.7,59,29.96,10.0,WSW,3.5,-,N/A,,Scattered Clouds,250,2013-02-17 07:35:00
2:55 AM,26.6,15.4,63,29.96,10.0,West,4.6,-,N/A,,Clear,280,2013-02-17 07:55:00
3:15 AM,26.2,14.9,62,29.96,10.0,WNW,4.6,-,N/A,,Clear,290,2013-02-17 08:15:00
3:35 AM,26.2,14.2,60,29.97,10.0,WNW,4.6,-,N/A,,Clear,290,2013-02-17 08:35:00
3:55 AM,26.8,10.4,50,29.97,10.0,WNW,9.2,-,N/A,,Clear,300,2013-02-17 08:55:00
4:15 AM,27.3,7.3,43,29.98,10.0,WNW,6.9,-,N/A,,Clear,290,2013-02-17 09:15:00
4:35 AM,26.6,7.2,44,29.99,10.0,NW,4.6,-,N/A,,Clear,310,2013-02-17 09:35:00
4:55 AM,26.6,7.5,45,29.99,10.0,WNW,5.8,-,N/A,,Scattered Clouds,290,2013-02-17 09:55:00
5:15 AM,26.6,7.9,45,30.00,10.0,WNW,9.2,19.6,N/A,,Clear,290,2013-02-17 10:15:00
5:35 AM,25.7,7.3,46,30.01,10.0,WNW,5.8,-,N/A,,Clear,300,2013-02-17 10:35:00
5:55 AM,25.5,7.3,46,30.02,10.0,WNW,9.2,-,N/A,,Clear,290,2013-02-17 10:55:00
6:15 AM,25.3,7.0,46,30.02,10.0,West,8.1,-,N/A,,Clear,280,2013-02-17 11:15:00
6:55 AM,24.8,7.5,48,30.04,10.0,WNW,8.1,-,N/A,,Clear,290,2013-02-17 11:55:00
7:15 AM,24.4,7.3,48,30.06,10.0,WNW,5.8,-,N/A,,Clear,290,2013-02-17 12:15:00
7:35 AM,24.6,5.4,44,30.07,10.0,WNW,8.1,16.1,N/A,,Scattered Clouds,300,2013-02-17 12:35:00
7:55 AM,25.0,4.6,42,30.08,10.0,WNW,9.2,17.3,N/A,,Scattered Clouds,290,2013-02-17 12:55:00
8:15 AM,25.7,4.5,40,30.08,10.0,West,8.1,18.4,N/A,,Clear,280,2013-02-17 13:15:00
8:35 AM,26.6,4.5,39,30.09,10.0,WNW,9.2,16.1,N/A,,Clear,300,2013-02-17 13:35:00
8:55 AM,27.1,3.4,36,30.09,10.0,NW,12.7,19.6,N/A,,Clear,310,2013-02-17 13:55:00
9:15 AM,28.0,2.8,34,30.09,10.0,NNW,8.1,17.3,N/A,,Clear,330,2013-02-17 14:15:00
9:35 AM,28.9,3.2,33,30.10,10.0,NNW,9.2,17.3,N/A,,Clear,340,2013-02-17 14:35:00
9:55 AM,28.9,2.3,32,30.11,10.0,NW,9.2,19.6,N/A,,Clear,320,2013-02-17 14:55:00
10:15 AM,30.0,3.6,33,30.11,10.0,NW,9.2,16.1,N/A,,Scattered Clouds,320,2013-02-17 15:15:00
10:35 AM,29.8,3.7,33,30.12,10.0,WNW,11.5,19.6,N/A,,Scattered Clouds,290,2013-02-17 15:35:00
10:55 AM,31.1,5.2,33,30.12,10.0,WNW,8.1,17.3,N/A,,Scattered Clouds,290,2013-02-17 15:55:00
11:15 AM,31.6,4.5,32,30.12,10.0,WNW,13.8,26.5,N/A,,Scattered Clouds,300,2013-02-17 16:15:00
11:35 AM,32.0,4.6,32,30.12,10.0,WNW,10.4,23.0,N/A,,Clear,290,2013-02-17 16:35:00
11:55 AM,32.9,5.0,31,30.12,10.0,NW,11.5,18.4,N/A,,Clear,320,2013-02-17 16:55:00
12:15 PM,33.6,4.6,30,30.11,10.0,WNW,12.7,19.6,N/A,,Clear,290,2013-02-17 17:15:00
12:35 PM,33.8,4.3,29,30.11,10.0,WNW,11.5,24.2,N/A,,Clear,290,2013-02-17 17:35:00
12:55 PM,33.8,3.6,28,30.10,10.0,NW,8.1,29.9,N/A,,Clear,310,2013-02-17 17:55:00
1:15 PM,34.3,4.6,29,30.10,10.0,West,10.4,27.6,N/A,,Clear,280,2013-02-17 18:15:00
1:35 PM,34.7,2.8,26,30.10,10.0,NW,10.4,19.6,N/A,,Clear,310,2013-02-17 18:35:00
1:55 PM,34.9,3.7,27,30.10,10.0,WNW,13.8,23.0,N/A,,Clear,290,2013-02-17 18:55:00
2:15 PM,36.3,4.3,26,30.10,10.0,NW,9.2,18.4,N/A,,Clear,310,2013-02-17 19:15:00
2:35 PM,36.5,4.5,26,30.10,10.0,WNW,11.5,20.7,N/A,,Clear,290,2013-02-17 19:35:00
2:55 PM,36.5,6.6,29,30.10,10.0,West,12.7,18.4,N/A,,Clear,260,2013-02-17 19:55:00
3:15 PM,36.5,5.5,27,30.11,10.0,WNW,10.4,-,N/A,,Clear,300,2013-02-17 20:15:00
3:35 PM,37.0,6.3,28,30.11,10.0,West,10.4,18.4,N/A,,Clear,280,2013-02-17 20:35:00
3:55 PM,36.5,4.5,26,30.11,10.0,West,8.1,17.3,N/A,,Clear,270,2013-02-17 20:55:00
4:15 PM,36.5,3.4,25,30.11,10.0,WNW,8.1,-,N/A,,Clear,300,2013-02-17 21:15:00
4:35 PM,36.0,3.2,25,30.11,10.0,NW,5.8,-,N/A,,Clear,320,2013-02-17 21:35:00
4:55 PM,36.0,3.6,26,30.12,10.0,West,8.1,-,N/A,,Clear,280,2013-02-17 21:55:00
5:15 PM,35.6,3.6,26,30.13,10.0,WNW,4.6,-,N/A,,Clear,290,2013-02-17 22:15:00
5:35 PM,34.7,4.1,28,30.14,10.0,WNW,8.1,16.1,N/A,,Clear,290,2013-02-17 22:35:00
5:55 PM,33.3,3.7,29,30.14,10.0,WNW,4.6,-,N/A,,Clear,300,2013-02-17 22:55:00
6:15 PM,32.2,3.4,30,30.15,10.0,Calm,Calm,-,N/A,,Clear,0,2013-02-17 23:15:00
6:35 PM,31.3,3.7,31,30.16,10.0,Calm,Calm,-,N/A,,Clear,0,2013-02-17 23:35:00
6:55 PM,30.2,3.9,33,30.16,10.0,Calm,Calm,-,N/A,,Clear,0,2013-02-17 23:55:00
7:15 PM,27.0,6.8,43,30.17,10.0,Calm,Calm,-,N/A,,Clear,0,2013-02-18 00:15:00
7:35 PM,27.7,8.1,44,30.18,10.0,Calm,Calm,-,N/A,,Clear,0,2013-02-18 00:35:00
7:55 PM,24.8,8.4,50,30.19,10.0,Calm,Calm,-,N/A,,Clear,0,2013-02-18 00:55:00
8:15 PM,23.0,10.2,58,30.19,10.0,Calm,Calm,-,N/A,,Clear,0,2013-02-18 01:15:00
8:35 PM,24.6,8.6,51,30.20,10.0,WNW,3.5,-,N/A,,Clear,290,2013-02-18 01:35:00
8:55 PM,24.1,9.3,53,30.20,10.0,Calm,Calm,-,N/A,,Clear,0,2013-02-18 01:55:00
9:15 PM,21.0,8.1,57,30.21,10.0,Calm,Calm,-,N/A,,Clear,0,2013-02-18 02:15:00
9:35 PM,20.7,12.6,71,30.21,10.0,Calm,Calm,-,N/A,,Clear,0,2013-02-18 02:35:00
9:55 PM,20.8,10.4,64,30.21,10.0,Calm,Calm,-,N/A,,Clear,0,2013-02-18 02:55:00
10:15 PM,19.4,9.5,65,30.22,10.0,Calm,Calm,-,N/A,,Clear,0,2013-02-18 03:15:00
10:35 PM,23.0,12.7,65,30.23,10.0,Calm,Calm,-,N/A,,Clear,0,2013-02-18 03:35:00
10:55 PM,18.0,11.8,77,30.23,10.0,Calm,Calm,-,N/A,,Clear,0,2013-02-18 03:55:00
11:15 PM,19.4,11.8,72,30.24,10.0,Calm,Calm,-,N/A,,Clear,0,2013-02-18 04:15:00
11:35 PM,18.9,12.2,75,30.25,10.0,Calm,Calm,-,N/A,,Clear,0,2013-02-18 04:35:00
11:55 PM,16.9,12.4,82,30.25,10.0,Calm,Calm,-,N/A,,Clear,0,2013-02-18 04:55:00